Airfield :







YOU CAN JOIN US ON...

 
LOGIN :

Register | Disclaimer

   EN    FR    IT 

 









Legend :    VFR   Marginal VFR   IFR   Intensive IFR   Very Intensive IFR
Visi :
Ceiling :
>= 8 km
>= 3000ft
5 to 8 km
1000 to 3000 ft
1500m to 5 km
500 to 1000 ft
800 to 1500m
200 to 500 ft
< 800m
< 200 ft
Symbols :   Thunderstorms  Fog  Heavy snow  Heavy precipitations  Wind > 20 kt






- Airport Elevation : 193 ft
- IATA code : ZBF


CZBF - Bathurst

CURRENT METAR :
  • 161800Z AUTO 27010G15KT 230V310 9SM FEW047 21/10 A3023 RMK SLP238 DENSITY ALT 600FT

EXPIRED METARs :
  • 161700Z AUTO 26008KT 230V360 9SM BKN047 20/10 A3024 RMK SLP242 DENSITY ALT 600FT
  • 161600Z AUTO 29010G16KT 9SM CLR 20/10 A3023 RMK SLP238 DENSITY ALT 500FT

TAF TAF CZBF
Valid from the 16 at 14:00 until the 17 at 02:00 UTC


161338Z 1614/1702 27007KT P6SM SKC
BECMG 1623/1701 VRB03KT RMK FCST BASED ON AUTO OBS. NXT FCST BY 162000Z
CZQM FIR / North America



MET'MAP, your aeronautical weather chart ! - Copyright ORBIFLY December 2007 - Disclaimer

ORBIFLY MET'MAP TEAM :

Programming & Development : Alexandra Zaïnal
Concept & original design : Baudouin d'Aumeries
Assistance for programming : Marc-Olivier Méhu
Technical & hardware support : Manuel Goepfert

Contact : metmap@orbifly.com




SOURCES & CREDITS :

   NOAA